Weather in Nemirov

Ukraine / Lviv District     50°06′06″N   23°26′15″E
temp.,
°C
wind,
m/s
gust,
m/s
humid.,
%
clouds,
%
prec.,
mm/h
press.,
hPa
HPBL,
m
8 may, sat
sat800:00+7wnw51094100 1.1 1011909
03:00+5w71291100 2.4 1013866
06:00+3wnw81391100 0.1 10161070
09:00+3wnw61089100 0.2 10181102
12:00+7wnw71071100 0.1 10201298
15:00+9w595881 0.1 10201650
18:00+9wnw696858 0.8 10201392
21:00+5w22840 1.4 102113
9 may, sun
sun900:00+3sw2286100 0.0 102312
03:00+3sw128899 0.0 102413
06:00+2s22865 0.0 102411
09:00+8s346961 0.0 1025277
12:00+13s4553100 0.0 10241364
15:00+16ssw454279 0.0 10231901
18:00+16ssw455029 0.0 10221707
21:00+10s357919 0.0 102361
10 may, mon
mon1000:00+8sse398645 0.0 1023160
03:00+7se410835 0.0 1023175
06:00+5se410885 0.0 1022157
09:00+12sse59675 0.0 1022292
12:00+17se685322 0.0 1021657
15:00+20se78505 0.0 1020893
18:00+19se710625 0.0 1019636
21:00+14se714735 0.0 1020420
11 may, tue
tue1100:00+12se614750 0.0 1020321
03:00+10se512800 0.0 1020261
06:00+9se512810 0.0 1020242
09:00+13se711700 0.0 1019362
12:00+18se79580 0.0 1018680
15:00+20se89520 0.0 1017922
18:00+19se812600 0.0 1016779
21:00+14ese715670 0.0 1016569
12 may, wed
wed1200:00+12ese717650 0.0 1016592
03:00+11ese617630 0.0 1015513
06:00+9ese616723 0.0 1014460
09:00+14ese714692 0.0 1013670
12:00+18ese811600 0.0 10111196
15:00+19ese8106123 0.0 10101528
18:00+18e610570 0.0 10091620
21:00+11e815747 0.0 1010528